TimeCDT,TemperatureF,Dew PointF,Humidity,Sea Level PressureIn,VisibilityMPH,Wind Direction,Wind SpeedMPH,Gust SpeedMPH,PrecipitationIn,Events,Conditions,WindDirDegrees,DateUTC
12:55 AM,19.9,1.9,46,30.39,10.0,North,3.5,-,N/A,,Clear,350,2013-04-03 05:55:00
1:55 AM,17.1,1.0,50,30.40,10.0,Calm,Calm,-,N/A,,Clear,0,2013-04-03 06:55:00
2:55 AM,17.1,1.0,50,30.39,10.0,NNE,3.5,-,N/A,,Clear,20,2013-04-03 07:55:00
3:55 AM,17.1,3.9,56,30.40,10.0,Calm,Calm,-,N/A,,Clear,0,2013-04-03 08:55:00
4:55 AM,19.0,-2.0,40,30.39,10.0,East,3.5,-,N/A,,Clear,90,2013-04-03 09:55:00
5:55 AM,16.0,-0.0,49,30.40,10.0,East,3.5,-,N/A,,Clear,100,2013-04-03 10:55:00
6:55 AM,16.0,1.0,52,30.41,10.0,Calm,Calm,-,N/A,,Clear,0,2013-04-03 11:55:00
7:55 AM,19.9,8.1,60,30.40,10.0,SE,4.6,-,N/A,,Clear,130,2013-04-03 12:55:00
8:55 AM,27.0,8.1,45,30.40,10.0,SSE,10.4,-,N/A,,Clear,150,2013-04-03 13:55:00
9:55 AM,28.9,7.0,40,30.40,10.0,South,11.5,-,N/A,,Clear,170,2013-04-03 14:55:00
10:55 AM,30.9,9.0,40,30.39,10.0,South,10.4,-,N/A,,Clear,180,2013-04-03 15:55:00
11:55 AM,35.1,10.9,37,30.36,10.0,South,15.0,23.0,N/A,,Clear,180,2013-04-03 16:55:00
12:55 PM,37.0,10.9,34,30.32,10.0,SSW,16.1,-,N/A,,Clear,200,2013-04-03 17:55:00
1:55 PM,39.0,12.9,34,30.27,10.0,South,12.7,-,N/A,,Clear,180,2013-04-03 18:55:00
2:55 PM,41.0,12.9,32,30.23,10.0,South,17.3,23.0,N/A,,Clear,170,2013-04-03 19:55:00
3:55 PM,41.0,14.0,33,30.20,10.0,South,15.0,21.9,N/A,,Clear,170,2013-04-03 20:55:00
4:55 PM,42.1,17.1,37,30.17,10.0,South,11.5,-,N/A,,Clear,190,2013-04-03 21:55:00
5:55 PM,41.0,19.0,41,30.14,10.0,SSW,20.7,25.3,N/A,,Clear,200,2013-04-03 22:55:00
6:55 PM,39.9,19.9,45,30.12,10.0,SSW,19.6,28.8,N/A,,Clear,200,2013-04-03 23:55:00
7:55 PM,37.9,21.9,53,30.09,10.0,South,16.1,25.3,N/A,,Partly Cloudy,190,2013-04-04 00:55:00
8:55 PM,37.0,21.9,54,30.06,10.0,SSW,18.4,23.0,N/A,,Partly Cloudy,200,2013-04-04 01:55:00
9:55 PM,37.0,24.1,59,30.02,10.0,SSW,17.3,26.5,N/A,,Partly Cloudy,200,2013-04-04 02:55:00
10:55 PM,37.9,26.1,62,30.00,10.0,SSW,19.6,27.6,0.00,Rain,Light Rain,210,2013-04-04 03:55:00
11:55 PM,39.0,28.0,65,29.97,10.0,SSW,19.6,31.1,0.00,,Overcast,210,2013-04-04 04:55:00